Location: Lane
(33.5226°N, 79.8788°W)
Time: 08:51:37
(UTC+00:00)

SR - Pass Details

Date: 26 September 2022
Orbit: 577 x 875 km, 66.7° (Epoch: 27 November)

Event Time Altitude Azimuth Distance (km) Brightness Sun altitude
Rises 03:58:48 0° 222° (SW) 3,372 - -53.5°
Reaches altitude 10° 04:01:19 10° 228° (SW) 2,470 - -53.8°
Maximum altitude 04:06:49 45° 301° (WNW) 1,167 - -54.4°
Drops below altitude 10° 04:12:28 10° 13° (NNE) 2,528 - -54.9°
Sets 04:15:05 0° 20° (NNE) 3,460 - -55.1°
